User: anonymous   Login
Location: Bakersfield
(35.3730°N, 119.0180°W)
Time: 22:46:05
(UTC-07:00)
Language:

ATLAS 5 CENTAUR R/B - Orbit

View from above orbital plane
View from above orbital plane
View from above satellite
View from above satellite

Ground track
Ground track

The orbit data is extracted from the following two-line orbital elements,

1 31702U 07027B   15246.08521110 0.00000150  00000-0  59758-4 0    02
2 31702  63.3700 324.8020 0197000 356.9438   3.0561 14.18396361    05
Epoch (UTC): 03 September 2015 02:02:42
Eccentricity: 0.0197000
inclination: 63.3700°
perigee height: 689 km
apogee height: 973 km
right ascension of ascending node: 324.8020°
argument of perigee: 356.9438°
revolutions per day: 14.18396361
mean anomaly at epoch: 3.0561°
orbit number at epoch: 0

The dashed part of the orbit path shows where the satellite is in the earth's shadow,  

DLR